Location: Unspecified
(52.4292°N, 19.3359°E)
Time: 15:57:53
(UTC+01:00)

A-11 Canister half - Pass Details

Date: 21 October 2025
Orbit: 1526 x 1682 km, 47.3° (Epoch: 13 November)

Event Time Altitude Azimuth Distance (km) Brightness Sun altitude
Exits shadow 03:14:41 55° 144° (SE) 1,781 9.1 -36.4°
Drops below altitude 10° 03:22:54 10° 88° (E) 3,700 11.6 -35.4°
Sets 03:26:00 0° 85° (E) 4,690 12.4 -35.0°
